FW6620 Weather Reports


time (UTC)temp
C
wind
direction
speed
KPH
gust
KPH
rain 1hr
cm
rain 24hr
cm
rain mn
cm
humidity
%
barometer
mb
20260504151047 21 24 0.0 11.3 0.00 0.08 0.03 78 1015.4
20260504150547 21 0 3.2 11.3 0.00 0.08 0.03 77 1015.6
20260504141047 18 56 0.0 11.3 0.00 0.08 0.03 81 1015.5
20260504140547 18 0 3.2 11.3 0.00 0.08 0.03 82 1015.7
20260504140109 18 0 1.6 6.4 0.00 0.08 0.03 83 1015.7
20260504130546 16 0 0.0 4.8 0.00 0.08 0.03 89 1015.7
20260504120112 15 0 0.0 0.0 0.00 0.08 0.03 88 1015.0
20260504110547 15 0 0.0 0.0 0.00 0.08 0.03 87 1015.4
20260504100549 16 0 0.0 3.2 0.03 0.10 0.03 85 1015.5
20260504081552 17 0 0.0 4.8 0.00 0.08 0.00 80 1016.0
20260504081047 17 0 0.0 4.8 0.00 0.08 0.00 79 1016.2
20260504080546 17 0 0.0 4.8 0.00 0.08 0.00 79 1016.1
20260504050546 18 0 1.6 6.4 0.00 0.08 0.00 70 1018.1
20260504050138 18 33 0.0 6.4 0.00 0.08 0.00 69 1018.0
20260504045545 18 27 0.0 4.8 0.00 0.08 0.08 69 1018.2
20260504045047 19 0 0.0 8.0 0.00 0.08 0.08 69 1018.1
20260504044559 18 0 0.0 8.0 0.00 0.08 0.08 69 1018.3
20260504044047 18 21 0.0 6.4 0.00 0.08 0.08 68 1018.2
20260504043547 18 21 0.0 6.4 0.00 0.08 0.08 68 1018.1
20260504043100 18 23 0.0 9.7 0.00 0.08 0.08 69 1018.2
20260504042546 18 0 1.6 9.7 0.00 0.08 0.08 69 1018.3
20260504042046 18 0 1.6 8.0 0.00 0.08 0.08 69 1018.3
20260504041555 17 20 0.0 4.8 0.00 0.08 0.08 70 1018.3
20260504041048 17 0 0.0 4.8 0.00 0.08 0.08 71 1018.3
20260504040548 17 0 0.0 4.8 0.00 0.08 0.08 72 1018.2
20260504040104 16 0 0.0 0.0 0.00 0.08 0.08 75 1018.3
20260504035547 16 0 0.0 0.0 0.00 0.10 0.08 75 1018.2
20260504035046 16 0 0.0 0.0 0.00 0.10 0.08 74 1018.2
20260504034553 16 0 0.0 0.0 0.00 0.10 0.08 74 1018.3
20260504034046 16 0 0.0 0.0 0.00 0.10 0.08 75 1018.2
20260504033545 16 0 0.0 0.0 0.00 0.10 0.08 72 1018.4
20260504033051 16 0 0.0 0.0 0.00 0.10 0.08 72 1018.4
20260504032546 16 0 0.0 0.0 0.00 0.10 0.08 71 1018.2
20260504032046 17 0 0.0 0.0 0.00 0.10 0.08 69 1018.2
20260504031604 17 0 0.0 0.0 0.00 0.10 0.08 70 1018.1
20260504031045 17 0 0.0 0.0 0.00 0.10 0.08 69 1018.1
20260504030545 17 0 0.0 0.0 0.00 0.10 0.08 70 1018.2
20260504030051 17 0 0.0 0.0 0.00 0.10 0.08 69 1018.0
20260504025547 17 0 0.0 0.0 0.00 0.10 0.08 67 1017.9
20260504025045 18 0 0.0 0.0 0.00 0.10 0.08 69 1018.0
20260504024550 18 0 0.0 0.0 0.00 0.10 0.08 67 1018.0
20260504024047 18 0 0.0 0.0 0.00 0.10 0.08 66 1017.9
20260504023547 18 0 0.0 0.0 0.00 0.10 0.08 68 1017.9
20260504023055 18 0 0.0 0.0 0.00 0.10 0.08 65 1017.9
20260504022547 18 0 0.0 0.0 0.00 0.10 0.08 64 1017.8
20260504022047 19 0 0.0 0.0 0.00 0.10 0.08 65 1018.0
20260504021603 19 0 0.0 0.0 0.00 0.10 0.08 63 1018.0
20260504021045 19 0 0.0 0.0 0.00 0.10 0.08 63 1018.0
20260504020545 19 0 0.0 0.0 0.00 0.10 0.08 63 1017.9
20260504020051 20 0 0.0 0.0 0.00 0.10 0.08 62 1017.9
20260504015546 20 0 0.0 0.0 0.00 0.10 0.08 62 1017.8
20260504015047 20 0 0.0 0.0 0.00 0.10 0.08 62 1017.6
20260504014557 21 0 0.0 0.0 0.00 0.10 0.08 59 1017.4
20260504014046 21 0 0.0 0.0 0.00 0.10 0.08 58 1017.3
20260504013546 21 0 0.0 1.6 0.00 0.10 0.08 58 1017.2
20260504013056 22 0 0.0 1.6 0.00 0.10 0.08 58 1017.3
20260504012545 22 0 0.0 1.6 0.00 0.10 0.08 56 1017.2
20260504012045 22 0 0.0 1.6 0.00 0.10 0.08 52 1017.3
20260504011600 22 0 0.0 1.6 0.00 0.10 0.08 49 1017.3
20260504011048 22 0 0.0 3.2 0.00 0.10 0.08 49 1017.2
20260504010545 23 0 0.0 3.2 0.00 0.10 0.08 49 1017.3
20260504010113 23 0 0.0 4.8 0.00 0.10 0.08 49 1017.1
20260504005547 23 0 0.0 4.8 0.00 0.10 0.08 48 1017.3
20260504005046 23 0 1.6 4.8 0.00 0.10 0.08 47 1017.2
20260504004556 23 0 0.0 4.8 0.00 0.10 0.08 49 1017.3
20260504004046 23 0 0.0 6.4 0.00 0.10 0.08 47 1017.3
20260504003545 23 0 0.0 6.4 0.00 0.10 0.08 45 1017.3
20260504003055 23 0 0.0 4.8 0.00 0.10 0.08 46 1017.3
20260504002545 23 14 0.0 4.8 0.00 0.10 0.08 44 1017.4
20260504002045 23 14 0.0 4.8 0.00 0.10 0.08 44 1017.5
20260504001611 23 19 0.0 4.8 0.00 0.10 0.08 43 1017.5
20260504001048 24 0 0.0 4.8 0.00 0.10 0.08 43 1017.6
20260504000547 24 21 0.0 14.5 0.00 0.10 0.08 43 1017.7
20260504000111 24 0 1.6 14.5 0.00 0.10 0.08 42 1017.6
20260503235546 24 15 0.0 6.4 0.00 0.10 0.08 42 1017.8
20260503235047 24 33 0.0 6.4 0.00 0.10 0.08 42 1017.9
20260503234554 24 0 0.0 8.0 0.00 0.10 0.08 42 1017.9
20260503234046 24 0 3.2 8.0 0.00 0.10 0.08 42 1017.8
20260503233546 24 0 0.0 8.0 0.00 0.10 0.08 43 1017.9
20260503233102 24 25 1.6 8.0 0.00 0.10 0.08 42 1017.9
20260503232545 24 0 3.2 9.7 0.03 0.10 0.08 43 1018.0
20260503232045 24 0 0.0 9.7 0.03 0.10 0.08 45 1017.9
20260503231600 25 27 1.6 6.4 0.03 0.10 0.08 42 1018.0
20260503231045 25 26 1.6 8.0 0.03 0.10 0.08 42 1018.1
20260503230548 25 19 0.0 8.0 0.03 0.10 0.08 42 1017.9
20260503230051 25 19 1.6 8.0 0.03 0.10 0.08 41 1017.8
20260503225546 25 0 1.6 6.4 0.03 0.13 0.08 42 1017.9
20260503225049 25 19 0.0 6.4 0.03 0.13 0.08 43 1018.0
20260503224601 25 28 0.0 6.4 0.03 0.13 0.08 45 1018.1
20260503224047 25 28 1.6 6.4 0.03 0.13 0.08 42 1018.0
20260503223548 25 26 0.0 9.7 0.03 0.13 0.08 44 1018.2
20260503223054 25 41 0.0 9.7 0.03 0.13 0.08 42 1018.4
20260503222545 25 0 0.0 6.4 0.00 0.10 0.05 44 1018.3
20260503222045 25 35 0.0 6.4 0.00 0.10 0.05 43 1018.5
20260503221556 26 0 1.6 8.0 0.00 0.10 0.05 42 1018.4
20260503221049 26 0 1.6 9.7 0.00 0.10 0.05 42 1018.5
20260503220546 26 0 1.6 9.7 0.00 0.10 0.05 43 1018.6
20260503220054 26 20 0.0 9.7 0.00 0.10 0.05 46 1018.7
20260503215546 26 29 0.0 6.4 0.00 0.10 0.05 43 1018.7
20260503215045 26 0 1.6 8.0 0.00 0.10 0.05 44 1018.8
20260503214557 25 41 1.6 8.0 0.00 0.10 0.05 44 1018.8
20260503214050 25 0 1.6 12.9 0.00 0.10 0.05 42 1018.8
20260503213547 25 14 0.0 12.9 0.00 0.10 0.05 43 1018.9
20260503213125 26 4 0.0 12.9 0.00 0.10 0.05 40 1019.1
20260503212547 26 0 3.2 12.9 0.00 0.10 0.05 40 1019.2
20260503212050 26 35 1.6 9.7 0.00 0.10 0.05 41 1019.2
20260503211619 26 30 0.0 9.7 0.00 0.10 0.05 39 1019.2
20260503211047 26 26 1.6 9.7 0.00 0.10 0.05 41 1019.5
20260503210546 26 27 1.6 16.1 0.00 0.10 0.05 39 1019.4
20260503210047 26 22 4.8 16.1 0.00 0.10 0.05 40 1019.7
20260503205546 26 29 1.6 8.0 0.00 0.10 0.05 40 1019.8
20260503205047 26 33 1.6 12.9 0.00 0.10 0.05 40 1019.8
20260503204603 26 82 1.6 12.9 0.00 0.10 0.05 42 1019.8
20260503204046 26 0 0.0 8.0 0.00 0.10 0.05 43 1019.8
20260503203545 26 28 1.6 8.0 0.00 0.10 0.05 39 1020.0
20260503203049 26 25 0.0 14.5 0.00 0.10 0.05 41 1020.1
20260503202547 25 30 3.2 14.5 0.00 0.10 0.05 41 1020.4
20260503202048 25 33 1.6 6.4 0.00 0.10 0.05 41 1020.4
20260503201551 26 0 1.6 9.7 0.00 0.10 0.05 40 1020.5
20260503201046 26 0 3.2 16.1 0.00 0.10 0.05 39 1020.5
20260503200546 26 24 4.8 16.1 0.00 0.10 0.05 39 1020.5
20260503200052 26 46 3.2 9.7 0.00 0.10 0.05 39 1020.6
20260503195546 26 24 1.6 8.0 0.00 0.13 0.05 40 1020.8
20260503195046 26 0 0.0 8.0 0.00 0.13 0.05 39 1020.9
20260503194553 26 10 1.6 6.4 0.00 0.13 0.05 42 1020.9
20260503194046 26 0 1.6 8.0 0.00 0.13 0.05 40 1021.0
20260503193546 26 9 1.6 8.0 0.00 0.13 0.05 42 1021.0
20260503193053 26 37 1.6 8.0 0.00 0.13 0.05 43 1021.1
20260503192546 26 14 1.6 8.0 0.00 0.13 0.05 42 1021.3
20260503192045 25 0 1.6 6.4 0.00 0.13 0.05 44 1021.2
20260503191603 25 0 0.0 9.7 0.00 0.13 0.05 42 1021.2
20260503191045 25 20 0.0 11.3 0.00 0.13 0.05 42 1021.4
20260503190546 25 0 1.6 11.3 0.00 0.13 0.05 40 1021.5
20260503190051 25 32 1.6 11.3 0.00 0.13 0.05 43 1021.6
20260503185545 25 0 0.0 11.3 0.00 0.13 0.05 44 1021.5
20260503185045 25 15 1.6 9.7 0.00 0.13 0.05 43 1021.6
20260503184611 25 0 3.2 9.7 0.00 0.13 0.05 43 1021.8
20260503184047 25 72 1.6 8.0 0.00 0.13 0.05 45 1021.7
20260503183545 25 0 1.6 8.0 0.00 0.13 0.05 41 1021.8
20260503183105 25 36 1.6 8.0 0.00 0.13 0.05 42 1022.1
20260503182544 25 0 1.6 6.4 0.00 0.13 0.05 44 1022.0
20260503182124 25 16 1.6 8.0 0.00 0.13 0.05 42 1022.2
20260503181553 25 17 1.6 11.3 0.00 0.13 0.05 45 1022.3
20260503181045 25 0 1.6 11.3 0.00 0.13 0.05 50 1022.3
20260503180546 25 16 0.0 9.7 0.00 0.13 0.05 46 1022.4
20260503180054 25 22 0.0 12.9 0.00 0.13 0.05 44 1022.5
20260503175546 25 40 3.2 12.9 0.00 0.15 0.05 45 1022.7
20260503175045 25 10 1.6 8.0 0.00 0.15 0.05 44 1022.7
20260503174610 25 20 0.0 9.7 0.00 0.15 0.05 45 1022.8
20260503174047 24 22 1.6 9.7 0.00 0.15 0.05 45 1022.8
20260503173545 24 22 0.0 14.5 0.00 0.15 0.05 46 1022.9
20260503173125 24 20 3.2 14.5 0.00 0.15 0.05 43 1022.9
20260503172546 24 15 1.6 8.0 0.00 0.15 0.05 45 1023.0
20260503172044 24 29 0.0 8.0 0.00 0.15 0.05 46 1022.9
20260503171559 24 10 3.2 8.0 0.00 0.15 0.05 45 1023.0
20260503171045 24 20 1.6 9.7 0.00 0.15 0.05 49 1023.1
20260503170546 23 0 1.6 9.7 0.00 0.15 0.05 45 1023.2